Location: Bun Machan
(52.1403°N, 7.3744°W)
Time: 19:16:53
(UTC+00:00)

Cosmos 1066 Rocket - Pass Details

Date: 14 July 2020
Orbit: 799 x 894 km, 81.2° (Epoch: 12 August)

Event Time Altitude Azimuth Distance (km) Brightness Sun altitude
Rises 02:44:56 0° 347° (NNW) 3,511 8.2 -11.0°
Reaches altitude 10° 02:47:24 10° 349° (N) 2,572 7.5 -10.8°
Maximum altitude 02:53:17 79° 76° (ENE) 917 4.5 -10.3°
Drops below altitude 10° 02:59:08 10° 164° (SSE) 2,553 6.3 -9.9°
Sets 03:01:35 0° 165° (SSE) 3,482 7.0 -9.6°
